Temp
11 12 12 14 15 15 14 13 14 16 16 15 15 16 17 18 17 17 17 17 18 19 19 17 17 17 14 14 13 13 13 14 13 13 13 12 12 12 12 12 12 12 12 12
12 11 14 15 13 13 13 13 14 15 15 14 15 15 17 18 17 17 17 18 18 19 19 18 17 17 18 16 15 14 13 14 14 14 13 13 13 12 12 12 12 12 12 12
11 14 12 12 12 11 12 13 14 14 14 14 14 14 16 18 17 17 17 17 18 18 19 18 17 16 18 17 15 15 14 15 14 14 13 12 11 11 11 12 12 12 12 11
12 13 13 11 12 12 12 14 13 12 12 12 14 13 16 19 19 18 18 17 17 17 17 18 18 15 16 16 16 16 16 16 15 14 13 14 14 13 13 12 12 12 11 11
12 11 10 10 12 13 12 12 12 12 12 12 13 12 15 17 18 18 19 18 18 18 18 18 18 16 14 14 17 16 16 16 16 15 13 14 13 13 12 12 12 11 11 11
12 12 11 12 12 12 12 11 12 12 11 9 13 13 15 18 18 19 20 19 19 18 18 18 18 17 15 14 15 15 14 17 17 15 14 13 12 13 12 12 12 11 11 11
12 12 11 11 10 11 11 10 9 9 8 11 10 13 15 17 18 18 18 18 18 18 18 18 17 15 14 13 14 15 15 16 16 16 15 13 13 12 13 12 12 12 11 11
11 11 12 11 10 10 10 10 11 11 12 13 11 10 14 16 17 16 16 16 16 16 16 17 17 14 13 13 12 14 13 15 16 15 16 14 12 11 12 11 12 12 11 10
12 12 11 9 11 12 10 8 11 10 11 9 13 14 16 17 17 17 17 16 15 16 15 15 14 13 12 13 13 13 13 13 15 16 14 13 12 11 10 10 10 11 10 10
12 11 10 9 9 11 10 12 7 8 9 10 13 14 13 15 16 16 16 16 14 14 14 13 13 12 11 12 13 14 12 11 13 14 12 15 13 11 10 10 9 10 9 9
11 10 9 8 8 9 8 8 9 11 11 11 12 14 14 10 14 15 15 14 12 11 11 11 10 9 9 10 9 11 14 12 11 11 11 11 11 11 10 9 9 10 10 9
11 10 10 9 12 12 11 10 11 10 11 11 11 11 15 15 15 14 14 13 11 10 11 11 10 8 8 8 8 8 8 10 10 11 11 9 10 10 10 9 9 9 9 8
10 9 9 10 10 9 9 11 11 12 11 10 9 11 12 12 13 14 13 13 13 12 9 8 8 8 6 5 7 7 7 7 8 9 9 10 8 9 8 8 8 9 8 8
9 9 10 10 11 12 8 10 10 10 9 10 9 10 13 13 13 13 13 13 13 13 10 8 7 6 5 5 6 6 6 6 7 8 8 7 8 7 6 7 6 7 7 7
7 6 8 9 10 10 8 8 9 9 9 7 9 10 12 12 11 12 12 12 12 12 11 8 7 5 4 5 5 5 5 5 5 6 6 6 6 6 6 7 7 7 6 5
8 4 6 7 8 8 8 10 10 10 10 9 10 10 12 12 12 12 12 11 11 12 11 9 7 5 4 5 5 5 5 5 5 5 6 5 5 6 6 5 5 5 5 5
4 7 7 6 8 8 7 9 10 10 11 11 10 12 13 12 12 12 12 12 11 12 12 10 7 5 3 5 5 4 4 4 4 5 5 5 5 5 4 4 4 5 4 4
1 2 5 5 7 5 9 11 11 10 11 11 11 11 10 9 7 6 8 9 10 11 11 10 7 5 3 4 5 4 4 4 4 4 4 4 4 4 3 3 3 3 3 3
4 2 2 3 6 7 9 2 2 3 7 3 3 4 4 4 5 9 6 4 4 5 8 10 7 5 3 3 4 4 4 4 3 3 4 4 4 3 3 3 3 2 2 3
5 5 3 2 2 3 7 0 1 2 3 1 1 1 2 2 4 9 4 3 3 5 6 8 6 4 2 2 2 3 3 3 3 3 3 3 3 3 3 2 2 2 2 2
4 4 3 3 3 5 -4 -2 -1 2 1 -2 -2 -1 -1 0 1 1 1 2 1 3 5 5 4 2 1 1 2 3 3 2 3 3 2 1 2 1 1 2 1 1 1 0
-1 -2 2 2 1 1 -6 -2 -3 -5 -5 -4 -4 -4 -3 -2 -1 -0 0 0 -0 1 2 2 1 1 -1 -0 1 1 1 0 2 2 2 1 0 -2 0 1 1 0 0 -0
-3 -7 -6 -6 -5 -6 -7 -8 -8 -8 -7 -6 -6 -5 -4 -3 -1 -1 -1 -1 -1 -1 -0 -0 -1 -1 -2 -2 -0 -0 -1 -1 -0 -1 -1 -2 -1 0 1 0 -0 -0 -0 -1
-7 -9 -7 -7 -7 -8 -8 -9 -9 -9 -8 -7 -7 -6 -6 -5 -3 -2 -2 -2 -2 -2 -2 -2 -2 -2 -3 -2 -1 1 -1 -2 -1 -1 -0 -0 -0 -1 -1 -1 -1 -1 -2 -2
-10 -9 -9 -7 -8 -8 -7 -10 -10 -10 -9 -9 -8 -7 -7 -6 -5 -5 -4 -4 -4 -3 -3 -3 -3 -3 -3 -5 -4 -3 -3 -3 -1 -1 -1 -1 -1 -1 -2 -2 -2 -2 -2 -2
-11 -11 -10 -9 -10 -11 -10 -10 -11 -11 -10 -10 -10 -9 -8 -7 -7 -6 -6 -6 -5 -5 -5 -4 -4 -5 -6 -6 -6 -6 -4 -2 -2 -2 -2 -2 -2 -2 -2 -2 -3 -3 -3 -3
Height
1490 1488 1481 1474 1474 1475 1475 1477 1473 1466 1465 1469 1464 1460 1458 1457 1459 1460 1461 1461 1460 1460 1464 1469 1467 1473 1477 1481 1486 1491 1493 1499 1503 1507 1511 1515 1518 1521 1524 1526 1528 1530 1531 1533
1488 1483 1474 1472 1476 1478 1478 1477 1471 1465 1466 1471 1463 1456 1450 1449 1450 1452 1452 1453 1454 1455 1457 1460 1464 1465 1468 1475 1478 1486 1489 1493 1499 1503 1509 1514 1517 1519 1522 1524 1526 1528 1530 1532
1480 1470 1475 1475 1476 1478 1475 1473 1469 1469 1466 1467 1461 1451 1440 1436 1439 1442 1444 1444 1447 1448 1451 1455 1458 1459 1465 1467 1469 1474 1483 1487 1493 1500 1505 1510 1513 1516 1518 1520 1523 1526 1527 1529
1474 1470 1470 1474 1474 1473 1473 1465 1468 1473 1474 1469 1461 1455 1434 1425 1426 1430 1433 1435 1437 1440 1444 1447 1451 1455 1456 1461 1466 1470 1472 1482 1486 1493 1499 1502 1507 1511 1515 1518 1520 1523 1525 1527
1469 1469 1473 1472 1467 1469 1471 1470 1470 1470 1472 1468 1461 1464 1434 1425 1421 1421 1425 1428 1430 1434 1437 1441 1445 1450 1453 1457 1459 1462 1466 1470 1480 1486 1492 1497 1502 1508 1512 1514 1517 1520 1522 1525
1466 1467 1469 1466 1467 1467 1470 1473 1471 1470 1473 1476 1452 1453 1430 1417 1416 1415 1417 1422 1424 1427 1430 1435 1439 1441 1445 1449 1453 1456 1460 1462 1467 1479 1485 1491 1497 1502 1506 1510 1512 1515 1519 1522
1458 1457 1463 1466 1468 1469 1470 1473 1475 1476 1480 1459 1455 1447 1425 1416 1416 1418 1419 1421 1423 1424 1426 1430 1434 1436 1441 1443 1445 1450 1454 1456 1461 1465 1477 1486 1492 1497 1501 1505 1508 1511 1515 1518
1456 1454 1452 1457 1460 1462 1466 1468 1462 1461 1450 1442 1455 1449 1425 1417 1418 1420 1420 1420 1422 1424 1425 1425 1428 1431 1436 1440 1442 1443 1448 1450 1455 1460 1464 1476 1486 1492 1496 1500 1504 1508 1512 1516
1448 1447 1451 1456 1456 1458 1462 1467 1460 1464 1457 1463 1438 1425 1414 1410 1412 1415 1416 1418 1421 1422 1423 1425 1427 1427 1428 1431 1435 1438 1442 1444 1450 1455 1459 1464 1475 1484 1490 1496 1502 1505 1509 1512
1445 1448 1451 1455 1459 1455 1457 1453 1470 1470 1461 1448 1427 1418 1420 1414 1414 1414 1415 1418 1419 1420 1422 1422 1423 1424 1425 1424 1426 1430 1436 1441 1444 1448 1455 1456 1466 1476 1482 1490 1497 1500 1506 1510
1446 1449 1452 1456 1452 1445 1458 1457 1454 1447 1442 1438 1429 1417 1412 1420 1415 1415 1416 1418 1419 1419 1419 1419 1419 1419 1419 1421 1422 1423 1428 1435 1438 1443 1449 1454 1460 1466 1474 1484 1492 1495 1500 1507
1441 1440 1435 1441 1433 1438 1440 1440 1439 1439 1435 1430 1430 1425 1410 1411 1413 1417 1417 1418 1418 1418 1416 1415 1414 1414 1414 1416 1418 1419 1420 1424 1432 1434 1441 1450 1454 1458 1464 1476 1487 1492 1496 1504
1438 1435 1435 1431 1436 1439 1438 1432 1430 1429 1428 1427 1434 1420 1413 1412 1412 1415 1416 1417 1416 1415 1414 1413 1411 1410 1410 1411 1415 1417 1418 1420 1422 1426 1435 1441 1451 1452 1461 1468 1478 1482 1494 1503
1435 1429 1422 1418 1417 1418 1432 1426 1425 1427 1426 1421 1416 1421 1412 1410 1412 1412 1412 1413 1413 1413 1412 1410 1409 1407 1405 1407 1410 1413 1414 1417 1420 1423 1428 1439 1441 1447 1456 1460 1470 1482 1487 1497
1439 1433 1426 1419 1418 1419 1425 1427 1421 1421 1419 1425 1415 1413 1412 1413 1413 1410 1411 1411 1410 1406 1407 1406 1405 1404 1403 1404 1406 1409 1412 1416 1420 1422 1425 1433 1440 1450 1456 1460 1471 1478 1486 1494
1425 1429 1429 1421 1419 1419 1416 1413 1414 1412 1411 1412 1410 1408 1413 1410 1410 1406 1405 1407 1404 1401 1402 1402 1401 1401 1400 1401 1403 1407 1408 1411 1416 1420 1422 1429 1439 1446 1451 1462 1469 1472 1482 1494
1432 1418 1416 1413 1411 1411 1410 1399 1404 1402 1399 1401 1397 1399 1402 1401 1400 1399 1399 1399 1398 1396 1396 1396 1396 1397 1397 1399 1401 1404 1409 1409 1413 1419 1424 1429 1439 1443 1455 1460 1464 1473 1482 1488
1441 1435 1423 1415 1405 1407 1389 1393 1392 1390 1391 1394 1393 1397 1400 1400 1399 1398 1397 1396 1395 1393 1391 1390 1391 1392 1394 1396 1400 1403 1407 1411 1413 1419 1424 1431 1437 1447 1459 1464 1465 1473 1483 1491
1432 1436 1428 1418 1400 1394 1392 1415 1415 1413 1401 1415 1414 1411 1409 1406 1399 1394 1395 1395 1394 1391 1386 1384 1385 1388 1392 1394 1397 1403 1406 1410 1415 1419 1426 1431 1438 1447 1455 1461 1467 1476 1484 1482
1416 1419 1425 1421 1418 1408 1392 1423 1423 1422 1413 1421 1420 1418 1414 1411 1402 1392 1391 1392 1387 1385 1382 1380 1380 1385 1385 1391 1395 1399 1405 1410 1415 1420 1426 1432 1441 1449 1457 1465 1471 1473 1479 1489
1404 1405 1407 1410 1407 1399 1435 1428 1422 1413 1421 1428 1426 1422 1419 1416 1413 1403 1397 1392 1388 1383 1381 1379 1381 1384 1386 1387 1392 1397 1403 1409 1413 1420 1426 1434 1441 1449 1457 1463 1469 1475 1481 1489
1430 1430 1406 1403 1404 1409 1441 1427 1432 1442 1435 1431 1427 1423 1418 1413 1408 1402 1396 1392 1387 1384 1382 1381 1382 1384 1389 1387 1391 1396 1402 1408 1414 1421 1428 1435 1441 1449 1457 1462 1471 1477 1478 1487
1439 1459 1450 1451 1448 1451 1451 1450 1448 1443 1438 1432 1427 1421 1416 1409 1404 1400 1393 1390 1387 1385 1385 1384 1384 1386 1388 1394 1391 1394 1401 1407 1413 1420 1429 1437 1444 1452 1457 1466 1472 1473 1479 1485
1459 1461 1457 1455 1454 1455 1452 1449 1447 1444 1438 1431 1425 1420 1414 1408 1402 1398 1392 1389 1387 1386 1387 1386 1386 1388 1390 1395 1394 1396 1401 1408 1414 1421 1430 1439 1447 1453 1460 1464 1468 1475 1480 1481
1475 1468 1467 1457 1456 1450 1448 1452 1448 1443 1438 1434 1427 1420 1413 1406 1401 1397 1392 1390 1389 1388 1388 1389 1389 1391 1394 1396 1398 1398 1402 1411 1418 1424 1433 1442 1450 1456 1459 1464 1469 1472 1475 1479
1481 1479 1474 1468 1469 1467 1460 1456 1451 1445 1440 1433 1425 1418 1412 1408 1403 1399 1394 1392 1392 1392 1390 1393 1394 1392 1395 1397 1400 1406 1411 1418 1423 1429 1438 1446 1451 1456 1460 1463 1467 1471 1473 1476
Wind_Speed
10 8 10 10 11 13 11 12 13 12 8 11 14 15 15 17 18 20 19 21 25 26 28 24 25 21 22 26 31 34 36 33 33 32 31 28 24 21 20 19 17 16 15 13
6 14 14 10 7 10 12 14 15 11 6 8 15 20 19 19 23 26 26 26 27 25 25 28 30 31 24 28 29 36 37 35 35 34 32 27 24 23 21 20 18 17 16 14
15 2 3 5 10 11 13 13 14 12 10 14 18 22 23 21 30 29 29 30 29 28 27 27 29 38 36 28 35 38 38 38 36 34 32 28 26 24 25 22 21 20 18 16
13 18 15 12 12 10 11 8 10 11 7 5 1 8 13 12 12 15 27 33 33 32 30 25 30 31 35 32 31 35 37 39 38 36 38 35 33 29 26 24 23 21 20 18
4 5 8 14 15 12 9 1 6 7 9 12 15 9 8 13 14 16 16 23 29 31 31 30 26 37 35 35 34 35 37 36 36 39 40 37 33 28 26 26 24 22 21 20
19 3 7 12 4 8 2 5 7 6 7 6 17 15 7 11 14 10 12 15 19 23 27 28 25 30 35 35 35 36 41 37 36 42 43 41 36 33 31 27 26 25 24 22
11 21 10 12 9 7 10 6 2 4 3 6 3 7 14 16 15 13 11 15 15 17 20 24 25 19 28 31 37 37 40 40 40 42 43 43 39 36 31 27 25 26 26 24
6 6 17 15 20 8 16 10 4 4 3 2 4 7 4 3 8 11 13 14 14 14 14 14 20 19 27 31 34 35 41 41 40 41 43 44 42 37 31 27 26 26 26 25
7 7 7 3 10 15 6 10 12 8 9 5 6 11 13 11 7 6 7 7 11 12 14 16 13 16 21 28 33 36 38 40 43 42 46 45 43 39 32 27 27 26 25 24
4 7 7 7 4 12 8 5 3 4 5 7 8 12 7 5 8 7 1 9 9 8 7 12 13 15 17 21 29 34 36 37 41 42 48 43 45 39 34 30 27 26 25 25
8 7 5 7 12 14 9 5 7 4 8 4 6 4 3 5 5 2 2 8 6 6 8 9 12 12 13 17 22 32 37 40 40 41 44 46 45 42 35 28 29 27 26 24
18 7 12 12 8 14 18 15 19 6 10 11 11 11 8 11 7 3 7 5 6 10 13 14 14 13 14 14 20 26 32 40 43 40 42 45 46 43 35 32 30 27 24 25
12 8 11 16 9 4 7 19 19 20 14 15 5 3 2 2 2 3 5 12 16 16 15 14 14 14 13 13 15 20 26 36 41 40 42 47 46 39 40 36 30 25 26 25
3 16 18 16 15 8 6 16 21 22 16 16 19 14 15 6 8 15 21 22 21 22 17 16 14 14 13 14 16 19 24 31 37 39 42 48 44 43 38 34 32 34 29 25
4 12 18 23 23 23 17 16 11 18 21 16 14 17 16 11 11 16 23 27 29 29 20 17 15 14 15 16 19 24 27 28 33 38 42 43 40 37 36 34 33 30 29 29
17 11 14 21 23 23 25 24 24 25 22 22 23 25 19 21 24 26 29 26 26 28 21 19 17 15 16 19 22 25 29 33 36 40 43 43 40 39 35 35 33 33 31 25
10 13 16 21 21 20 20 29 27 26 25 23 25 23 19 18 18 23 25 25 27 25 22 20 19 18 18 22 23 27 30 34 39 41 39 38 36 33 35 35 38 32 31 29
8 12 10 14 18 24 19 16 13 18 21 16 18 13 13 15 20 22 21 22 26 29 27 21 19 19 19 23 26 29 33 35 36 35 35 36 36 36 38 35 34 32 29 30
18 13 5 9 13 15 15 7 8 7 0 14 14 15 18 25 24 12 7 20 20 22 24 21 20 19 20 24 30 32 35 34 34 37 36 36 36 38 38 35 31 32 30 24
21 19 14 9 8 8 5 12 13 6 7 17 18 16 17 23 9 9 33 37 36 27 20 13 18 22 25 28 32 36 35 35 37 38 40 40 40 39 37 33 32 28 25 24
13 13 18 16 15 15 13 19 15 7 5 25 22 21 22 12 15 33 35 31 25 18 9 10 17 22 26 30 33 36 37 38 38 38 39 41 39 36 35 33 29 28 24 20
6 6 8 11 12 15 26 6 7 13 24 24 22 22 25 25 27 28 26 22 17 9 5 14 18 22 22 32 35 35 35 37 39 40 41 40 37 35 32 31 28 25 21 17
2 5 5 5 4 9 13 11 18 20 21 23 25 24 23 26 25 23 21 17 12 6 6 11 16 23 26 27 37 40 39 41 42 43 41 41 39 35 32 29 25 21 18 15
6 16 4 6 10 18 16 23 23 23 22 23 23 22 21 22 21 18 15 12 8 5 7 13 18 24 27 29 37 39 42 43 43 43 41 37 35 32 29 25 20 17 15 12
7 8 10 5 14 20 19 24 26 23 21 21 19 19 19 18 15 14 10 8 4 4 8 13 21 24 23 24 30 37 41 42 43 41 38 35 31 27 24 20 17 14 11 9
11 5 5 3 16 13 14 20 24 22 22 22 22 22 21 18 13 9 7 4 4 4 12 16 21 26 27 30 32 34 37 37 38 36 32 28 26 22 18 14 12 9 7 7
Wind_Direction
202 243 227 237 237 258 287 279 274 281 284 283 270 264 259 256 250 251 247 248 233 231 226 219 224 232 223 218 212 204 208 210 205 207 206 208 206 206 207 206 205 198 193 190
214 243 251 261 271 259 253 265 270 280 305 284 277 274 266 251 240 242 241 242 238 234 226 219 212 226 225 221 212 205 212 210 210 214 213 214 213 214 214 210 206 203 198 194
236 249 80 238 235 235 239 252 271 277 296 282 271 273 262 248 243 240 237 240 238 235 230 220 212 218 227 217 210 205 215 213 213 217 213 210 212 213 211 209 208 206 201 197
254 259 241 241 247 229 255 255 263 273 279 263 4 286 292 274 233 224 234 232 233 232 231 225 212 207 212 214 214 212 211 217 213 215 216 219 224 219 217 214 211 207 204 200
238 205 212 233 237 228 245 249 252 259 269 284 269 271 265 244 245 237 241 238 235 233 232 229 219 211 209 212 216 212 212 211 217 218 221 222 221 221 220 215 212 207 206 203
257 258 249 236 235 223 320 233 238 253 275 257 248 235 269 251 246 263 249 248 243 237 233 232 230 221 211 216 218 215 213 210 211 218 219 223 219 217 216 215 211 209 208 206
243 239 216 228 216 207 207 153 209 214 204 247 348 270 245 296 290 293 295 282 272 260 246 231 226 215 207 212 219 216 213 213 213 212 218 221 221 220 220 217 217 212 209 207
244 238 204 193 218 193 207 187 229 250 237 290 170 241 261 313 295 286 285 287 276 271 272 250 234 219 219 209 214 217 216 215 218 214 212 217 220 220 218 217 216 216 214 210
224 239 162 274 210 221 175 216 239 296 260 275 241 246 260 275 272 273 308 277 275 274 252 243 238 227 221 217 217 220 216 217 221 220 212 207 214 214 213 212 215 210 211 209
293 259 195 158 175 236 226 223 134 210 227 241 238 253 227 280 313 348 49 7 349 351 284 271 256 239 227 225 220 221 223 220 221 218 214 209 209 208 206 210 210 207 209 207
224 231 144 160 207 191 185 214 219 242 224 244 263 253 153 222 280 156 4 358 11 355 339 302 272 252 232 217 216 218 220 219 222 219 215 209 203 201 204 203 205 204 205 203
210 258 237 209 229 223 211 215 214 220 222 225 254 264 295 282 244 276 325 353 339 319 314 307 292 274 251 226 214 213 215 214 219 216 216 205 199 195 193 195 197 197 197 197
186 223 245 249 192 213 237 233 234 237 252 241 231 192 98 126 147 239 326 310 311 305 302 299 291 278 260 230 218 210 206 209 213 207 206 207 195 190 190 190 192 195 197 198
256 247 244 243 249 254 231 225 229 232 238 246 239 256 255 264 286 294 310 308 311 309 288 284 276 270 256 243 215 202 198 200 204 202 202 195 188 192 189 186 187 186 187 204
240 248 245 259 266 266 243 257 244 232 244 252 262 252 259 271 276 284 294 297 297 290 283 268 265 251 241 231 220 218 212 206 205 197 193 187 188 184 179 175 179 186 191 191
240 253 258 257 256 260 265 266 253 256 249 250 255 260 265 272 271 272 273 279 281 285 282 270 256 234 229 223 216 211 204 198 194 190 180 175 177 177 177 185 188 181 180 185
306 258 255 258 254 259 250 246 255 261 260 260 260 268 271 265 263 263 273 276 276 281 283 267 242 226 215 212 210 202 198 189 183 179 175 174 179 176 179 179 175 176 176 177
271 292 268 261 260 243 251 258 265 255 256 269 274 305 334 332 326 320 315 305 295 290 284 261 233 216 202 201 199 193 185 181 177 175 174 174 174 173 176 174 168 167 173 175
231 247 265 252 255 270 266 28 13 7 67 31 1 345 342 335 324 299 17 347 330 318 299 273 224 202 187 190 192 187 181 180 176 174 175 175 175 175 172 171 168 167 168 161
228 224 235 252 255 268 285 6 341 311 239 9 355 341 334 336 311 295 331 329 319 316 303 242 199 190 184 188 182 183 182 180 177 175 174 170 170 171 169 167 165 163 164 169
244 225 232 234 245 246 8 328 309 229 351 341 338 330 325 317 308 302 309 311 315 318 282 204 185 182 180 186 184 183 181 178 178 175 170 167 167 165 166 164 163 163 165 171
346 330 269 254 239 230 6 28 2 335 326 330 331 323 316 311 310 307 308 310 316 314 225 180 172 173 180 181 179 176 174 177 175 172 170 168 167 163 162 164 166 167 166 175
65 359 309 22 35 344 35 16 350 343 331 332 328 325 319 317 315 313 312 312 309 286 212 187 176 173 172 167 174 172 170 170 166 164 162 162 162 163 164 167 167 165 172 181
31 13 16 319 17 340 28 8 358 346 339 337 335 329 327 322 319 314 318 312 297 224 200 181 180 170 164 167 177 179 171 168 164 162 160 158 160 160 162 163 166 173 179 181
355 327 323 292 8 345 4 356 351 348 349 348 346 347 346 341 341 339 343 335 304 209 187 178 165 154 152 157 163 167 164 163 161 157 156 158 161 161 159 161 166 173 178 189
355 353 354 312 335 313 318 342 356 357 358 1 7 9 13 12 8 353 7 28 50 137 150 154 150 144 141 143 141 147 155 159 154 151 154 157 160 161 161 163 166 172 180 203